Content
SEND FEEDBACK

Daily
Averages
Monthly
Summary
Romania

IASI, ROMANIA


Home > Europe > Romania
Elevation: 210 feet     Latitude: 47 10N     Longitude: 027 36E

WEATHER
 
SELECT A DAY
Number of Records: 123,875;   Date Range: 1/10/97 - 10/30/14
 
SHARE

PRINT THIS DATA

[ ← Previous Day ]
WEATHER ALMANAC - JANUARY 31, 2013
[ Next Day → ]
[ °C ]   °F
Weather ElementAverageHighLow
Temperature32.9 °F41 °F (4:00 pm)21.2 °F (12:00 am)
Dewpoint29.6 °F37 °F (2:00 pm)21.2 °F (12:00 am)
Humidity87.1 %100 % (12:00 am)65 % (6:00 pm)
Barometer29.78 in29.88 in (1:00 am)29.71 in (6:00 am)
Wind Speed7.4 mph16.1 mph (12:00 am)
Weather ElementAverage
Visibility2.6 mi
Wind DirectionS (174.9 °)

Weather ElementTotal
Precipitation---
Heating Degree Days33.9 (Base 65)
Averaged from 61 records on January 31, 2013
WEATHER CONDITIONS BREAKOUT
WIND DIRECTION BREAKOUT
WEATHER BY HOUR - JANUARY 31, 2013
[ °C ]   °F
Local TimeTemperatureDewpointHumidityBarometerVisibilityWind DirectionWind SpeedGust SpeedPrecipitationEventsConditions
12:00 AM21.2 °F21.2 °F100 %29.86 in1.4 miESE (110°)16.1 mphMist
1:00 AM24.0 °F23.0 °F93 %29.88 in2.0 miEast (100°)6.7 mphMist
1:00 AM23.0 °F23.0 °F100 %29.80 in1.9 miEast (100°)16.1 mphMist
2:00 AM25.0 °F24.0 °F94 %29.84 in2.0 miEast (100°)4.5 mphMist
2:00 AM23.0 °F23.0 °F100 %29.80 inEast (100°)16.1 mphMist
3:00 AM25.0 °F24.0 °F93 %29.83 in2.0 miEast (100°)6.7 mphMist
3:00 AM23.0 °F23.0 °F100 %29.77 in2.8 miEast (100°)13.8 mphMist
4:00 AM24.8 °F23.0 °F93 %29.77 in2.2 miEast (100°)13.8 mphMist
4:00 AM25.0 °F24.0 °F93 %29.81 in2.0 miESE (110°)6.7 mphMist
5:00 AM26.0 °F25.0 °F92 %29.78 in2.0 miESE (110°)6.7 mphMist
5:00 AM24.8 °F24.8 °F100 %29.74 inESE (110°)13.8 mphRainRain
5:30 AM26.6 °F24.8 °F93 %29.74 in1.9 miESE (110°)11.5 mphRainRain
6:00 AM27.0 °F27.0 °F98 %29.77 in2.0 miESE (110°)4.5 mphLight Freezing Rain
6:00 AM26.6 °F26.6 °F100 %29.71 inESE (110°)16.1 mphRainRain
6:30 AM26.6 °F26.6 °F100 %29.71 in1.9 miESE (110°)13.8 mphOvercast
7:00 AM28.4 °F26.6 °F93 %29.71 in0.9 miESE (110°)16.1 mphRainRain
7:00 AM28.0 °F28.0 °F97 %29.74 in2.0 miEast (100°)6.7 mphRainLight Freezing Drizzle
7:30 AM28.4 °F26.6 °F93 %29.71 in1.2 miEast (100°)13.8 mphRainRain
8:00 AM29.0 °F29.0 °F99 %29.75 in2.0 miEast (90°)6.7 mphLight Freezing Rain
8:00 AM28.4 °F28.4 °F100 %29.71 in1.1 miEast (100°)13.8 mphRainRain
8:30 AM28.4 °F28.4 °F100 %29.74 in0.9 miEast (100°)11.5 mphRainRain
9:00 AM30.0 °F30.0 °F98 %29.76 in2.0 miEast (100°)4.5 mphLight Freezing Rain
9:00 AM30.2 °F28.4 °F93 %29.74 in0.9 miEast (100°)6.9 mphRainRain
9:30 AM30.2 °F30.2 °F100 %29.74 in0.9 miESE (110°)4.6 mphRainRain
10:00 AM31.0 °F31.0 °F100 %29.76 in1.0 miESE (110°)2.2 mphHeavy Freezing Rain
10:00 AM30.2 °F30.2 °F100 %29.74 in0.9 miVariable2.3 mphRainRain
10:30 AM32.0 °F30.2 °F93 %29.74 in0.9 miCalmRainRain
11:00 AM32.0 °F32.0 °F99 %29.77 in1.0 miCalm (30°)Heavy Freezing Rain
11:00 AM32.0 °F30.2 °F93 %29.74 in1.1 miVariable2.3 mphRainRain
11:30 AM32.0 °F30.2 °F93 %29.74 in0.9 miCalmRainRain
12:00 PM33.0 °F32.0 °F94 %29.78 in1.0 miEast (90°)2.2 mphLight Freezing Rain
12:30 PM35.6 °F33.8 °F93 %29.74 in1.6 miVariable2.3 mphRainLight Rain
1:00 PM34.0 °F34.0 °F99 %29.78 in1.0 miWSW (250°)2.2 mphRainLight Rain
1:00 PM39.2 °F35.6 °F87 %29.74 in5.0 miWNW (300°)9.2 mphScattered Clouds
1:30 PM37.4 °F33.8 °F87 %29.77 in5.6 miNW (320°)9.2 mphScattered Clouds
2:00 PM40.0 °F37.0 °F86 %29.79 in2.0 miNNW (330°)2.2 mphRainLight Rain
2:00 PM39.2 °F33.8 °F81 %29.77 inNW (320°)6.9 mphClear
2:30 PM39.2 °F33.8 °F81 %29.77 inNNW (340°)9.2 mphClear
3:00 PM39.2 °F33.8 °F81 %29.77 inWNW (290°)6.9 mphClear
3:30 PM39.2 °F33.8 °F81 %29.77 inWNW (300°)6.9 mphClear
4:00 PM39.0 °F34.0 °F77 %29.81 in6.0 miWest (260°)2.2 mphMostly Cloudy
4:00 PM41.0 °F32.0 °F70 %29.80 inWNW (300°)11.5 mphClear
4:30 PM41.0 °F32.0 °F70 %29.80 inWNW (300°)11.5 mphClear
5:00 PM40.0 °F33.0 °F69 %29.82 in6.0 miWNW (300°)4.5 mphPartly Cloudy
5:00 PM41.0 °F32.0 °F70 %29.80 inWNW (300°)13.8 mphClear
5:30 PM39.2 °F32.0 °F75 %29.80 inNW (320°)11.5 mphClear
6:00 PM39.2 °F32.0 °F75 %29.80 inNW (320°)13.8 mphClear
6:00 PM40.0 °F32.0 °F65 %29.82 in6.0 miNNW (340°)4.5 mphScattered Clouds
6:30 PM39.2 °F30.2 °F70 %29.80 inNW (310°)11.5 mphClear
7:00 PM39.0 °F32.0 °F67 %29.83 in6.0 miNW (310°)4.5 mphScattered Clouds
7:00 PM39.2 °F30.2 °F70 %29.80 inNW (310°)9.2 mphClear
7:30 PM37.4 °F30.2 °F75 %29.80 inNW (320°)9.2 mphClear
8:00 PM36.0 °F31.0 °F76 %29.83 in6.0 miWNW (290°)2.2 mphScattered Clouds
8:00 PM37.4 °F30.2 °F75 %29.80 inSW (220°)4.6 mphClear
8:30 PM37.4 °F30.2 °F75 %29.80 inSW (230°)4.6 mphClear
9:00 PM36.0 °F32.0 °F80 %29.83 in6.0 miWest (270°)2.2 mphMostly Cloudy
9:00 PM37.4 °F30.2 °F75 %29.80 inVariable2.3 mphClear
10:00 PM36.0 °F32.0 °F81 %29.82 in6.0 miWest (260°)2.2 mphPartly Cloudy
10:00 PM37.4 °F30.2 °F75 %29.80 inWest (260°)4.6 mphClear
11:00 PM36.0 °F32.0 °F81 %29.82 in6.0 miWest (280°)4.5 mphOvercast
11:00 PM37.4 °F30.2 °F75 %29.80 inVariable2.3 mphClear
Hourly data recorded from LRIA, located miles away from Iasi, Romania







STORIES FROM OUR PARTNERS